Change the Weather History Date:

Saturday, December 8, 2012

  Actual Average Record
Temperature  
Mean Temperature 21 °F -  
Max Temperature 29 °F 29 °F 46 °F (2014)
Min Temperature 13 °F 5 °F -27 °F (1978)
Degree Days  
Heating Degree Days 44 48  
Month to date heating degree days 291 378  
Since 1 July heating degree days 3311 3783  
Cooling Degree Days 0 0  
Month to date cooling degree days 0 0  
Year to date cooling degree days 0 0  
Moisture  
Dew Point 14 °F    
Average Humidity 69    
Maximum Humidity 96    
Minimum Humidity 42    
Precipitation  
Precipitation 0.14 in 0.02 in 0.25 in (2007)
Month to date precipitation 0.16 0.20  
Year to date precipitation 10.46 11.90  
Sea Level Pressure  
Sea Level Pressure 29.71 in    
Wind  
Wind Speed 10 mph (NW)    
Max Wind Speed 28 mph    
Max Gust Speed 37 mph    
Visibility 4 miles    
Events Fog , Snow    
T = Trace of Precipitation, MM = Missing Value Source: NWS Daily Summary

Daily Weather History Graph

Daily Weather History Graph

Search for Another Location

Airport or City:

Trip Planner

Search our weather history database for the weather conditions in past years. The results will help you decide how hot, cold, wet, or windy it might be!

Date:

Astronomy

Dec. 08, 2012 Rise Set
Actual Time 7:12 AM MST 4:42 PM MST
Civil Twilight 6:42 AM MST 5:12 PM MST
Nautical Twilight 6:09 AM MST 5:45 PM MST
Astronomical Twilight 5:36 AM MST 6:18 PM MST
Moon 1:42 AM MST (12/8) 1:12 PM MST (12/8)
Length of Visible Light 10h 29m
Length of Day
9h 29m
Waning Crescent, 27% of the Moon is Illuminated
Dec 8
Waning Crescent
Dec 13
New
Dec 19
First Quarter
Dec 28
Full
Jan 4
Last Quarter

Hourly Weather History & Observations

Time (MST) Temp. Windchill Dew Point Humidity Pressure Visibility Wind Dir Wind Speed Gust Speed Precip Events Conditions
12:53 AM 21.9 °F 17.2 °F 12.9 °F 68% 29.71 in 10.0 mi ESE 3.5 mph - N/A   Clear
1:53 AM 21.9 °F 17.2 °F 14.0 °F 72% 29.70 in 10.0 mi NNE 3.5 mph - N/A   Mostly Cloudy
2:53 AM 21.9 °F 17.2 °F 12.9 °F 68% 29.69 in 10.0 mi Variable 3.5 mph - N/A   Mostly Cloudy
3:53 AM 21.9 °F 11.7 °F 12.0 °F 66% 29.70 in 10.0 mi NW 9.2 mph - N/A   Mostly Cloudy
4:53 AM 19.9 °F 7.3 °F 14.0 °F 78% 29.70 in 10.0 mi NW 12.7 mph 20.7 mph N/A   Overcast
5:53 AM 21.0 °F 8.1 °F 12.9 °F 71% 29.69 in 10.0 mi NW 13.8 mph 20.7 mph N/A   Clear
6:53 AM 21.0 °F 12.4 °F 12.0 °F 68% 29.67 in 10.0 mi WNW 6.9 mph - N/A   Clear
7:53 AM 21.9 °F 9.8 °F 12.0 °F 66% 29.68 in 10.0 mi NNW 12.7 mph 18.4 mph N/A   Overcast
8:53 AM 25.0 °F 15.5 °F 10.9 °F 55% 29.64 in 10.0 mi NW 9.2 mph 16.1 mph N/A   Overcast
9:53 AM 26.1 °F 14.5 °F 10.9 °F 53% 29.66 in 10.0 mi NW 13.8 mph 25.3 mph N/A   Overcast
10:53 AM 28.0 °F 17.5 °F 9.0 °F 45% 29.62 in 10.0 mi WNW 12.7 mph 26.5 mph N/A   Overcast
11:53 AM 27.0 °F 17.3 °F 9.0 °F 47% 29.60 in 10.0 mi NW 10.4 mph 21.9 mph N/A   Overcast
12:31 PM 24.8 °F 15.3 °F 15.8 °F 69% 29.73 in 1.8 mi NW 9.2 mph 24.2 mph 0.00 in Snow Light Snow
12:46 PM 24.8 °F 13.4 °F 15.8 °F 69% 29.72 in 3.0 mi NNW 12.7 mph 18.4 mph 0.00 in Snow Light Snow
12:53 PM 24.1 °F 13.1 °F 16.0 °F 71% 29.62 in 2.5 mi NNW 11.5 mph 21.9 mph 0.00 in Snow Light Snow
1:02 PM 23.0 °F 11.1 °F 17.6 °F 80% 29.73 in 1.0 mi NNW 12.7 mph 21.9 mph 0.01 in Snow Light Snow
1:39 PM 23.0 °F 11.1 °F 17.6 °F 80% 29.72 in 1.2 mi NW 12.7 mph 18.4 mph 0.01 in Snow Light Snow
1:53 PM 23.0 °F 12.4 °F 18.0 °F 81% 29.61 in 1.0 mi NW 10.4 mph 20.7 mph 0.01 in Snow Light Snow
2:39 PM 23.0 °F 12.4 °F 17.6 °F 80% 29.72 in 3.0 mi WNW 10.4 mph - 0.00 in Snow Light Snow
2:50 PM 24.8 °F 11.5 °F 12.2 °F 59% 29.73 in 9.0 mi NW 17.3 mph 28.8 mph 0.01 in   Overcast
2:53 PM 24.1 °F 11.5 °F 12.0 °F 60% 29.62 in 10.0 mi NW 15.0 mph 28.8 mph 0.01 in   Overcast
3:47 PM 21.2 °F 9.5 °F 15.8 °F 80% 29.73 in 2.0 mi WNW 11.5 mph - 0.00 in Snow Light Snow
3:53 PM 21.0 °F 9.9 °F 16.0 °F 81% 29.65 in 1.2 mi NW 10.4 mph - 0.00 in Snow Light Snow
4:09 PM 21.2 °F 12.6 °F 17.6 °F 86% 29.72 in 3.0 mi NNW 6.9 mph - 0.00 in Snow Light Snow
4:17 PM 21.2 °F 14.9 °F 17.6 °F 86% 29.72 in 1.8 mi NNW 4.6 mph - 0.00 in Snow Light Snow
4:43 PM 19.4 °F 12.8 °F 17.6 °F 93% 29.73 in 0.8 mi NNW 4.6 mph - 0.01 in Snow Light Snow
4:53 PM 19.9 °F 10.1 °F 18.0 °F 92% 29.68 in 1.0 mi NW 8.1 mph - 0.01 in Snow Light Snow
5:06 PM 19.4 °F 10.4 °F 17.6 °F 93% 29.73 in 2.0 mi NNW 6.9 mph - 0.00 in Snow Light Snow
5:21 PM 19.4 °F 10.4 °F 17.6 °F 93% 29.73 in 1.2 mi NW 6.9 mph - 0.01 in Snow Light Snow
5:53 PM 19.9 °F 12.1 °F 17.1 °F 89% 29.66 in 1.2 mi NW 5.8 mph - 0.01 in Snow Light Snow
5:58 PM 19.4 °F 7.9 °F 17.6 °F 93% 29.74 in 0.8 mi WNW 10.4 mph 17.3 mph 0.01 in Snow Light Snow
6:16 PM 19.4 °F 11.5 °F 17.6 °F 93% 29.73 in 1.2 mi North 5.8 mph - 0.02 in Snow Light Snow
6:53 PM 19.0 °F 10.0 °F 17.1 °F 92% 29.68 in 1.2 mi NNW 6.9 mph - 0.02 in Snow Light Snow
7:05 PM 19.4 °F 7.9 °F 15.8 °F 86% 29.75 in 0.8 mi NW 10.4 mph 25.3 mph 0.01 in Snow Light Snow
7:15 PM 17.6 °F 4.3 °F 15.8 °F 93% 29.75 in 1.8 mi NW 12.7 mph 19.6 mph 0.01 in Snow Light Snow
7:26 PM 17.6 °F 3.2 °F 14.0 °F 86% 29.76 in 0.8 mi WNW 15.0 mph 27.6 mph 0.01 in Snow Light Snow
7:50 PM 17.6 °F 1.3 °F 12.2 °F 79% 29.77 in 0.5 mi NW 19.6 mph 31.1 mph 0.02 in Fog , Snow Snow
7:53 PM 17.1 °F 0.1 °F 12.9 °F 84% 29.71 in 0.5 mi WNW 20.7 mph 31.1 mph 0.02 in Fog , Snow Light Snow
8:12 PM 15.8 °F 0.9 °F 12.2 °F 86% 29.76 in 1.0 mi WNW 15.0 mph 21.9 mph 0.01 in Snow Light Snow
8:30 PM 15.8 °F 5.1 °F 12.2 °F 86% 29.76 in 1.2 mi WNW 8.1 mph 16.1 mph 0.01 in Snow Light Snow
8:53 PM 16.0 °F 2.3 °F 12.0 °F 84% 29.68 in 1.8 mi WNW 12.7 mph - 0.01 in Snow Light Snow
9:13 PM 15.8 °F 2.7 °F 12.2 °F 86% 29.76 in 1.0 mi WNW 11.5 mph - 0.01 in Snow Light Snow
9:25 PM 15.8 °F 2.1 °F 10.4 °F 79% 29.76 in 1.2 mi NW 12.7 mph 20.7 mph 0.01 in Snow Light Snow
9:53 PM 14.0 °F 2.9 °F 12.0 °F 92% 29.70 in 1.0 mi NW 8.1 mph - 0.02 in Snow Light Snow
10:05 PM 14.0 °F 2.9 °F 10.4 °F 86% 29.75 in 1.8 mi NW 8.1 mph - 0.00 in Snow Light Snow
10:48 PM 14.0 °F 1.2 °F 10.4 °F 86% 29.76 in 1.0 mi WNW 10.4 mph 17.3 mph 0.01 in Snow Light Snow
10:53 PM 14.0 °F 1.2 °F 10.9 °F 88% 29.68 in 1.0 mi NW 10.4 mph - 0.02 in Snow Light Snow
11:24 PM 12.2 °F -1.8 °F 10.4 °F 92% 29.76 in 1.0 mi NW 11.5 mph - 0.00 in Snow Light Snow
11:53 PM 12.9 °F 0.7 °F 9.0 °F 84% 29.70 in 1.5 mi NW 9.2 mph - 0.01 in Snow Light Snow